KY4EF Weather Reports


time (UTC)temp
C
wind
direction
speed
KPH
gust
KPH
rain 1hr
cm
rain 24hr
cm
rain mn
cm
humidity
%
barometer
mb
20260906100912 18 301 1.6 1.6 0.00 0.00 0.00 99 1014.1
20260906100412 18 262 0.0 0.0 0.00 0.00 0.00 99 1014.2
20260906095907 18 301 0.0 0.0 0.00 0.00 0.00 99 1014.0
20260906095403 18 303 0.0 0.0 0.00 0.00 0.00 99 1014.2
20260906094902 18 276 0.0 0.0 0.00 0.00 0.00 99 1013.9
20260906094356 18 289 0.0 0.0 0.00 0.00 0.00 99 1014.0
20260906093847 18 289 0.0 0.0 0.00 0.00 0.00 99 1014.1
20260906093343 18 289 0.0 0.0 0.00 0.00 0.00 99 1014.2
20260906092837 18 289 0.0 0.0 0.00 0.00 0.00 99 1014.1
20260906092331 18 289 0.0 0.0 0.00 0.00 0.00 99 1014.2
20260906091827 18 284 0.0 0.0 0.00 0.00 0.00 99 1014.0
20260906091323 18 285 0.0 0.0 0.00 0.00 0.00 99 1013.9
20260906090814 18 284 0.0 0.0 0.00 0.00 0.00 99 1014.0
20260906090312 18 272 0.0 0.0 0.00 0.00 0.00 99 1013.9
20260906085807 18 260 0.0 0.0 0.00 0.00 0.00 99 1013.9
20260906085307 18 260 1.6 1.6 0.00 0.00 0.00 99 1013.9
20260906084801 18 300 0.0 0.0 0.00 0.00 0.00 99 1014.0
20260906084301 18 300 0.0 0.0 0.00 0.00 0.00 99 1014.0
20260906083755 18 300 0.0 0.0 0.00 0.00 0.00 99 1014.1
20260906083251 18 299 0.0 0.0 0.00 0.00 0.00 99 1014.0
20260906082745 18 299 0.0 0.0 0.00 0.00 0.00 99 1014.1
20260906082241 18 299 0.0 0.0 0.00 0.00 0.00 99 1013.9
20260906081737 18 299 0.0 0.0 0.00 0.00 0.00 99 1014.1
20260906081231 18 299 0.0 0.0 0.00 0.00 0.00 99 1013.9
20260906080727 18 299 0.0 0.0 0.00 0.00 0.00 99 1014.1
20260906080224 18 299 0.0 0.0 0.00 0.00 0.00 99 1014.2
20260906075718 18 299 0.0 0.0 0.00 0.00 0.00 99 1014.0
20260906075212 18 299 0.0 0.0 0.00 0.00 0.00 99 1014.1
20260906074708 18 301 0.0 0.0 0.00 0.00 0.00 99 1014.1
20260906074207 18 308 0.0 0.0 0.00 0.00 0.00 99 1013.9
20260906073702 18 343 0.0 0.0 0.00 0.00 0.00 99 1013.8
20260906073157 18 343 0.0 1.6 0.00 0.00 0.00 99 1013.9
20260906072652 18 343 0.0 0.0 0.00 0.00 0.00 99 1013.8
20260906072148 18 343 0.0 0.0 0.00 0.00 0.00 99 1013.5
20260906071644 18 343 0.0 0.0 0.00 0.00 0.00 99 1013.4
20260906071143 18 343 0.0 1.6 0.00 0.00 0.00 99 1013.5
20260906070640 18 343 0.0 0.0 0.00 0.00 0.00 99 1013.8
20260906070136 18 343 0.0 0.0 0.00 0.00 0.00 99 1013.6
20260906065635 18 60 0.0 0.0 0.00 0.00 0.00 99 1013.5
20260906065131 18 59 0.0 0.0 0.00 0.00 0.00 99 1014.0
20260906064626 18 74 1.6 1.6 0.00 0.00 0.00 99 1014.0
20260906064121 18 189 1.6 1.6 0.00 0.00 0.00 99 1014.2
20260906063616 18 298 0.0 0.0 0.00 0.00 0.00 99 1014.1
20260906063112 18 299 0.0 0.0 0.00 0.00 0.00 99 1014.2
20260906062608 18 226 0.0 0.0 0.00 0.00 0.00 99 1014.1
20260906062106 18 222 1.6 1.6 0.00 0.00 0.00 99 1014.2
20260906061603 18 271 0.0 0.0 0.00 0.00 0.00 99 1014.2
20260906061102 18 285 0.0 0.0 0.00 0.00 0.00 99 1014.2
20260906060559 18 286 0.0 0.0 0.00 0.00 0.00 99 1014.1
20260906060056 18 286 0.0 1.6 0.00 0.00 0.00 99 1014.2
20260906055552 18 286 0.0 0.0 0.00 0.00 0.00 99 1014.2
20260906055046 18 288 0.0 0.0 0.00 0.00 0.00 99 1014.2
20260906054541 18 288 0.0 0.0 0.00 0.00 0.00 99 1014.3
20260906054037 18 288 0.0 0.0 0.00 0.00 0.00 99 1014.3
20260906053533 18 288 0.0 0.0 0.00 0.00 0.00 99 1014.6
20260906053028 18 288 0.0 0.0 0.00 0.00 0.00 99 1014.8
20260906052524 18 285 0.0 0.0 0.00 0.00 0.00 99 1014.9
20260906052021 18 285 0.0 0.0 0.00 0.00 0.00 99 1014.9
20260906051516 18 289 0.0 0.0 0.00 0.00 0.00 99 1014.9
20260906051011 19 273 0.0 0.0 0.00 0.00 0.00 99 1014.8
20260906050506 19 277 0.0 0.0 0.00 0.00 0.00 99 1014.8
20260906050000 19 256 0.0 0.0 0.00 0.00 0.00 99 1015.0
20260906045459 19 256 0.0 0.0 0.00 0.00 0.00 99 1015.0
20260906044955 19 256 0.0 0.0 0.00 0.00 0.00 99 1015.3
20260906044450 19 272 0.0 0.0 0.00 0.00 0.00 99 1015.3
20260906043946 19 274 0.0 0.0 0.00 0.00 0.00 99 1015.0
20260906043441 19 274 0.0 0.0 0.00 0.00 0.00 99 1015.0
20260906042937 19 296 0.0 0.0 0.00 0.00 0.00 99 1015.0
20260906042436 19 290 0.0 0.0 0.00 0.00 0.00 99 1015.2
20260906041931 19 290 0.0 0.0 0.00 0.00 0.00 99 1015.1
20260906041427 19 290 0.0 0.0 0.00 0.00 0.00 99 1015.2
20260906040926 19 290 0.0 0.0 0.00 0.00 0.00 99 1015.1
20260906040421 19 187 0.0 0.0 0.00 0.00 0.00 99 1015.1
20260906035911 19 187 0.0 0.0 0.00 0.08 0.08 99 1015.1
20260906035406 19 187 0.0 0.0 0.00 0.08 0.08 99 1015.1
20260906034902 19 187 0.0 0.0 0.00 0.08 0.08 99 1015.2
20260906034356 19 186 0.0 0.0 0.00 0.08 0.08 99 1015.1
20260906033852 20 179 0.0 0.0 0.00 0.08 0.08 99 1015.2
20260906033352 20 179 0.0 0.0 0.00 0.08 0.08 99 1014.9
20260906032848 20 181 1.6 1.6 0.00 0.08 0.08 99 1015.1
20260906032344 20 197 0.0 0.0 0.00 0.08 0.08 99 1015.0
20260906031839 20 196 1.6 1.6 0.00 0.08 0.08 99 1015.3
20260906031334 20 197 0.0 0.0 0.00 0.08 0.08 99 1015.0
20260906030833 20 197 0.0 0.0 0.00 0.08 0.08 99 1015.1
20260906030329 20 200 0.0 0.0 0.00 0.08 0.08 99 1014.9
20260906025823 20 200 0.0 0.0 0.00 0.08 0.08 99 1014.9
20260906025317 20 200 0.0 0.0 0.00 0.08 0.08 99 1014.8
20260906024816 20 201 0.0 0.0 0.00 0.08 0.08 99 1014.7
20260906024315 20 201 0.0 0.0 0.00 0.08 0.08 99 1014.7
20260906023812 20 201 0.0 0.0 0.00 0.08 0.08 99 1014.7
20260906023307 20 201 0.0 0.0 0.00 0.08 0.08 99 1015.0
20260906022803 20 201 0.0 0.0 0.00 0.08 0.08 99 1014.7
20260906022257 20 201 0.0 0.0 0.00 0.08 0.08 99 1014.7
20260906021753 20 201 0.0 0.0 0.00 0.08 0.08 99 1014.7
20260906021252 20 202 0.0 0.0 0.00 0.08 0.08 99 1014.8
20260906020747 20 202 0.0 0.0 0.00 0.08 0.08 99 1014.7
20260906020247 20 202 0.0 0.0 0.00 0.08 0.08 99 1014.7
20260906015741 20 202 0.0 0.0 0.00 0.08 0.08 99 1014.5
20260906015240 20 202 0.0 0.0 0.00 0.08 0.08 99 1014.7
20260906014734 20 202 0.0 0.0 0.00 0.08 0.08 99 1014.4
20260906014230 20 202 0.0 0.0 0.00 0.08 0.08 99 1014.4
20260906013726 20 202 0.0 0.0 0.00 0.08 0.08 99 1014.3
20260906013226 20 202 0.0 0.0 0.00 0.08 0.08 99 1014.0
20260906012721 20 201 1.6 1.6 0.00 0.08 0.08 99 1014.3
20260906012216 20 204 0.0 0.0 0.00 0.08 0.08 99 1014.5
20260906011711 20 204 0.0 0.0 0.00 0.08 0.08 99 1014.3
20260906011206 20 210 0.0 0.0 0.00 0.08 0.08 99 1014.5
20260906010702 20 216 0.0 0.0 0.00 0.08 0.08 99 1014.1
20260906010158 21 215 0.0 0.0 0.00 0.08 0.08 99 1014.1
20260906005657 21 215 0.0 0.0 0.00 0.08 0.08 99 1014.0
20260906005157 21 234 1.6 1.6 0.00 0.08 0.08 99 1014.2
20260906004655 21 121 0.0 0.0 0.00 0.08 0.08 99 1014.3
20260906004151 21 121 0.0 0.0 0.00 0.08 0.08 99 1014.3
20260906003646 21 121 0.0 0.0 0.00 0.08 0.08 99 1014.2
20260906003142 21 121 0.0 0.0 0.00 0.08 0.08 99 1014.2
20260906002636 21 122 1.6 1.6 0.00 0.08 0.08 99 1014.0
20260906002131 21 135 0.0 0.0 0.00 0.08 0.08 99 1014.2
20260906001626 21 139 0.0 0.0 0.00 0.08 0.08 99 1014.1
20260906001126 21 139 0.0 0.0 0.00 0.08 0.08 98 1014.0
20260906000622 21 139 0.0 0.0 0.00 0.08 0.08 99 1013.9
20260906000118 22 202 1.6 1.6 0.00 0.08 0.08 98 1014.0
20260905235616 22 254 0.0 0.0 0.00 0.08 0.08 97 1014.0
20260905235112 22 254 0.0 0.0 0.00 0.08 0.08 96 1014.1
20260905234607 22 254 0.0 0.0 0.00 0.08 0.08 96 1014.0
20260905234101 22 258 0.0 0.0 0.00 0.08 0.08 97 1013.9
20260905233556 22 258 0.0 0.0 0.00 0.08 0.08 96 1013.9
20260905233056 22 239 0.0 0.0 0.00 0.08 0.08 96 1013.8
20260905232551 22 161 0.0 0.0 0.00 0.08 0.08 96 1013.8
20260905232047 22 161 0.0 0.0 0.00 0.08 0.08 96 1013.6
20260905231542 22 160 1.6 1.6 0.00 0.08 0.08 95 1013.5
20260905231038 22 161 0.0 0.0 0.00 0.08 0.08 96 1013.5
20260905230537 22 161 1.6 1.6 0.00 0.08 0.08 95 1013.4
20260905230036 22 162 1.6 1.6 0.00 0.08 0.08 95 1013.6
20260905225531 23 165 0.0 0.0 0.00 0.08 0.08 94 1013.8
20260905225026 23 161 0.0 1.6 0.00 0.08 0.08 94 1014.0
20260905224521 23 36 0.0 0.0 0.00 0.08 0.08 93 1013.9
20260905224020 23 203 0.0 0.0 0.00 0.08 0.08 93 1014.0
20260905223519 23 203 0.0 0.0 0.00 0.08 0.08 96 1014.1
20260905223014 23 203 0.0 0.0 0.00 0.08 0.08 96 1014.0
20260905222513 23 209 1.6 1.6 0.00 0.08 0.08 95 1014.0
20260905222009 23 240 0.0 0.0 0.00 0.08 0.08 92 1014.1
20260905221505 23 336 0.0 0.0 0.00 0.08 0.08 91 1013.9
20260905221001 23 254 0.0 0.0 0.00 0.08 0.08 92 1013.9
20260905220457 23 254 0.0 0.0 0.00 0.08 0.08 91 1013.6
20260905215956 23 254 0.0 0.0 0.00 0.08 0.08 90 1014.0
20260905215452 23 254 0.0 0.0 0.00 0.08 0.08 93 1014.1
20260905214948 23 254 0.0 0.0 0.00 0.08 0.08 94 1013.9
20260905214443 23 255 1.6 1.6 0.00 0.08 0.08 92 1014.1
20260905213937 23 257 0.0 0.0 0.00 0.08 0.08 93 1014.1
20260905213434 22 264 0.0 0.0 0.00 0.08 0.08 94 1014.0
20260905212929 22 219 0.0 0.0 0.00 0.08 0.08 95 1014.2
20260905212424 22 220 0.0 1.6 0.00 0.08 0.08 93 1014.0
20260905211923 22 220 0.0 0.0 0.00 0.08 0.08 95 1014.2
20260905211419 22 219 0.0 0.0 0.00 0.08 0.08 94 1014.3
20260905210915 23 219 1.6 1.6 0.00 0.08 0.08 92 1014.2
20260905210414 23 287 0.0 0.0 0.00 0.08 0.08 88 1014.4
20260905205914 23 288 0.0 0.0 0.00 0.08 0.08 91 1014.8
20260905205409 23 296 0.0 0.0 0.00 0.08 0.08 92 1014.5
20260905204908 23 282 0.0 0.0 0.00 0.08 0.08 94 1014.7
20260905204404 22 280 0.0 1.6 0.00 0.08 0.08 95 1015.0
20260905203857 22 284 0.0 1.6 0.00 0.08 0.08 96 1014.6
20260905203353 21 250 0.0 0.0 0.00 0.08 0.08 98 1014.6
20260905202848 21 195 0.0 0.0 0.00 0.08 0.08 98 1014.4
20260905202343 21 196 1.6 1.6 0.00 0.08 0.08 99 1014.6
20260905201839 21 195 1.6 1.6 0.00 0.08 0.08 97 1014.9
20260905201334 21 236 0.0 0.0 0.00 0.08 0.08 96 1015.0
20260905200828 21 188 1.6 1.6 0.00 0.08 0.08 96 1015.0
20260905200326 21 180 1.6 1.6 0.00 0.08 0.08 96 1015.0
20260905195821 22 172 1.6 1.6 0.00 0.08 0.08 96 1015.1
20260905195317 22 210 0.0 0.0 0.00 0.08 0.08 98 1015.1
20260905194813 22 206 1.6 1.6 0.00 0.08 0.08 98 1014.8
20260905194307 22 105 1.6 1.6 0.13 0.08 0.08 95 1014.7
20260905193806 22 132 3.2 3.2 0.13 0.08 0.08 93 1014.6
20260905193301 23 275 0.0 1.6 0.00 0.05 0.05 89 1014.6
20260905192757 24 204 1.6 1.6 0.30 0.05 0.05 91 1014.7
20260905192253 25 289 3.2 3.2 0.30 0.05 0.05 88 1014.3
20260905191752 27 322 4.8 4.8 0.00 0.00 0.00 81 1014.6
20260905191250 28 311 9.7 11.3 0.00 0.00 0.00 75 1014.6
20260905190749 30 286 4.8 6.4 0.00 0.00 0.00 68 1014.5
20260905190249 32 142 3.2 4.8 0.00 0.00 0.00 63 1014.7
20260905185748 33 260 1.6 1.6 0.00 0.00 0.00 58 1014.6
20260905185242 35 296 6.4 6.4 0.00 0.00 0.00 55 1014.4
20260905184737 35 274 1.6 1.6 0.00 0.00 0.00 53 1014.3
20260905184236 36 301 0.0 0.0 0.00 0.00 0.00 51 1014.1
20260905183735 34 279 0.0 0.0 0.00 0.00 0.00 58 1013.8
20260905183231 35 258 0.0 0.0 0.00 0.00 0.00 57 1013.8
20260905182725 35 358 1.6 3.2 0.00 0.00 0.00 56 1014.0
20260905182225 36 294 1.6 1.6 0.00 0.00 0.00 52 1014.2
20260905181720 35 202 1.6 1.6 0.00 0.00 0.00 55 1014.1
20260905181219 34 259 1.6 3.2 0.00 0.00 0.00 60 1014.2
20260905180714 33 217 1.6 1.6 0.00 0.00 0.00 63 1014.6
20260905180209 35 268 0.0 0.0 0.00 0.00 0.00 56 1014.6
20260905175708 36 275 0.0 1.6 0.00 0.00 0.00 54 1014.7
20260905175203 35 243 0.0 1.6 0.00 0.00 0.00 56 1014.9
20260905174658 33 269 0.0 1.6 0.00 0.00 0.00 60 1015.1
20260905174155 34 287 3.2 4.8 0.00 0.00 0.00 58 1015.1
20260905173651 35 311 1.6 3.2 0.00 0.00 0.00 57 1014.9
20260905173146 35 285 3.2 3.2 0.00 0.00 0.00 56 1014.9
20260905172645 36 307 3.2 3.2 0.00 0.00 0.00 54 1014.9
20260905172145 37 277 1.6 3.2 0.00 0.00 0.00 53 1015.1
20260905171641 36 252 0.0 0.0 0.00 0.00 0.00 53 1015.2
20260905171137 35 273 1.6 1.6 0.00 0.00 0.00 53 1015.2
20260905170633 34 289 1.6 1.6 0.00 0.00 0.00 57 1015.1
20260905170129 34 318 3.2 4.8 0.00 0.00 0.00 56 1015.5
20260905165623 36 195 1.6 1.6 0.00 0.00 0.00 51 1015.3
20260905165118 36 244 0.0 1.6 0.00 0.00 0.00 53 1015.2
20260905164613 35 245 1.6 1.6 0.00 0.00 0.00 54 1015.3
20260905164107 33 237 0.0 1.6 0.00 0.00 0.00 55 1015.8
20260905163604 33 197 1.6 1.6 0.00 0.00 0.00 62 1015.7
20260905163100 32 304 1.6 1.6 0.00 0.00 0.00 57 1015.7
20260905162556 32 43 0.0 1.6 0.00 0.00 0.00 58 1016.0
20260905162054 33 262 0.0 1.6 0.00 0.00 0.00 56 1015.9
20260905161549 33 269 0.0 1.6 0.00 0.00 0.00 59 1016.0
20260905161047 32 329 0.0 1.6 0.00 0.00 0.00 62 1016.2
20260905160546 31 191 1.6 1.6 0.00 0.00 0.00 72 1015.9
20260905160045 31 147 1.6 1.6 0.00 0.00 0.00 73 1015.8
20260905155540 31 176 1.6 1.6 0.00 0.00 0.00 73 1015.9
20260905155038 30 154 1.6 1.6 0.00 0.00 0.00 73 1015.7
20260905154534 30 56 1.6 1.6 0.00 0.00 0.00 71 1015.9
20260905154029 28 189 1.6 1.6 0.00 0.00 0.00 74 1015.9
20260905153525 28 140 1.6 3.2 0.00 0.00 0.00 82 1016.1
20260905153025 28 159 1.6 1.6 0.00 0.00 0.00 79 1016.2
20260905152520 29 198 1.6 1.6 0.00 0.00 0.00 76 1016.2
20260905152015 28 166 1.6 1.6 0.00 0.00 0.00 77 1016.3
20260905151509 28 146 1.6 1.6 0.00 0.00 0.00 81 1016.1
20260905151004 28 150 1.6 1.6 0.00 0.00 0.00 80 1016.2
20260905150454 27 150 1.6 1.6 0.00 0.00 0.00 82 1016.4
20260905145951 27 154 0.0 0.0 0.00 0.00 0.00 79 1016.3
20260905145446 26 196 0.0 1.6 0.00 0.00 0.00 83 1016.5
20260905144945 26 196 1.6 1.6 0.00 0.00 0.00 85 1016.5
20260905144441 25 196 0.0 1.6 0.00 0.00 0.00 89 1016.3
20260905143939 25 196 1.6 1.6 0.00 0.00 0.00 89 1016.2
20260905143438 26 212 0.0 0.0 0.00 0.00 0.00 84 1016.5
20260905142933 25 214 0.0 0.0 0.00 0.00 0.00 88 1016.6
20260905142432 25 217 0.0 0.0 0.00 0.00 0.00 88 1016.5
20260905141928 25 217 0.0 0.0 0.00 0.00 0.00 89 1016.5
20260905141422 23 217 0.0 0.0 0.00 0.00 0.00 93 1016.5
20260905140919 22 219 0.0 0.0 0.00 0.00 0.00 97 1016.6
20260905140414 22 246 0.0 0.0 0.00 0.00 0.00 99 1016.9
20260905135912 21 245 0.0 1.6 0.00 0.00 0.00 99 1016.6
20260905135408 21 255 0.0 0.0 0.00 0.00 0.00 99 1016.8
20260905134904 20 258 0.0 1.6 0.00 0.00 0.00 99 1016.9
20260905134403 20 246 0.0 1.6 0.00 0.00 0.00 99 1017.1
20260905133856 20 246 1.6 1.6 0.00 0.00 0.00 99 1016.8
20260905133352 20 286 0.0 0.0 0.00 0.00 0.00 99 1016.9
20260905132851 20 286 0.0 0.0 0.00 0.00 0.00 99 1017.2
20260905132347 20 286 0.0 0.0 0.00 0.00 0.00 99 1017.1
20260905131846 20 286 0.0 0.0 0.00 0.00 0.00 99 1016.9
20260905131342 20 286 0.0 0.0 0.00 0.00 0.00 99 1017.1
20260905130837 20 286 0.0 0.0 0.00 0.00 0.00 99 1017.2
20260905130335 19 286 0.0 0.0 0.00 0.00 0.00 99 1017.3
20260905125831 19 286 0.0 0.0 0.00 0.00 0.00 99 1017.1
20260905125326 19 286 0.0 0.0 0.00 0.00 0.00 99 1017.4
20260905124823 19 286 0.0 0.0 0.00 0.00 0.00 99 1017.2
20260905124319 18 286 0.0 0.0 0.00 0.00 0.00 99 1017.3
20260905123819 18 286 0.0 0.0 0.00 0.00 0.00 99 1017.2
20260905123316 18 286 0.0 0.0 0.00 0.00 0.00 99 1017.2
20260905122815 18 286 0.0 0.0 0.00 0.00 0.00 99 1017.2
20260905122315 18 286 0.0 0.0 0.00 0.00 0.00 99 1016.7
20260905121810 18 286 0.0 0.0 0.00 0.00 0.00 99 1016.7
20260905121307 18 286 0.0 0.0 0.00 0.00 0.00 99 1016.9
20260905120805 18 286 0.0 0.0 0.00 0.00 0.00 99 1017.1
20260905120259 18 286 0.0 0.0 0.00 0.00 0.00 99 1016.9
20260905115754 18 286 0.0 0.0 0.00 0.00 0.00 99 1016.8
20260905115248 18 286 0.0 0.0 0.00 0.00 0.00 99 1016.8
20260905114748 18 286 0.0 0.0 0.00 0.00 0.00 99 1016.5
20260905114247 18 286 0.0 0.0 0.00 0.00 0.00 99 1016.9
20260905113746 18 286 0.0 0.0 0.00 0.00 0.00 99 1016.8
20260905113242 18 287 0.0 0.0 0.00 0.00 0.00 99 1016.6
20260905112737 18 287 0.0 0.0 0.00 0.00 0.00 99 1016.5
20260905112232 18 290 0.0 0.0 0.00 0.00 0.00 99 1016.6
20260905111727 18 290 0.0 0.0 0.00 0.00 0.00 99 1016.4
20260905111227 18 291 0.0 0.0 0.00 0.00 0.00 99 1016.3
20260905110726 18 290 0.0 0.0 0.00 0.00 0.00 99 1016.4
20260905110220 18 290 0.0 0.0 0.00 0.00 0.00 99 1016.1
20260905105716 18 290 0.0 0.0 0.00 0.00 0.00 99 1015.9
20260905105215 18 290 0.0 0.0 0.00 0.00 0.00 99 1016.1
20260905104710 18 290 0.0 0.0 0.00 0.00 0.00 99 1015.9
20260905104206 18 291 0.0 0.0 0.00 0.00 0.00 99 1016.2
20260905103701 18 291 0.0 0.0 0.00 0.00 0.00 99 1015.9
20260905103156 18 291 0.0 0.0 0.00 0.00 0.00 99 1016.0
20260905102652 18 290 0.0 0.0 0.00 0.00 0.00 99 1016.0
20260905102148 18 290 0.0 0.0 0.00 0.00 0.00 99 1015.9
20260905101647 18 291 0.0 0.0 0.00 0.00 0.00 99 1015.8